Regional Weather Roundup
Issued by NWS

Home | Current Version | Previous Version | Text Only | Print | Product List | Glossary Off
Versions: 1 2 3 4 5 6 7 8 9 10 11 12 13 14 15 16 17 18 19 20 21 22 23 24 25 26 27 28 29 30 31 32 33 34 35 36 37 38 39 40 41 42 43 44 45 46 47 48 49 50

000
ASUS43 KDMX 090603
RWRIA

WEATHER ROUNDUP FOR IOWA
NATIONAL WEATHER SERVICE DES MOINES IA
1200 AM CST TUE FEB 09 2016

NOTE: "FAIR" INDICATES FEW OR NO CLOUDS BELOW 12,000 FEET WITH NO
SIGNIFICANT WEATHER AND/OR OBSTRUCTIONS TO VISIBILITY.

* - THESE STATIONS ARE NOT NWS STATIONS...THUS NOT UNDER NWS
QUALITY CONTROL.  THEY ALSO DO NOT REPORT WEATHER SUCH
AS PRECIPITATION OR FOG.

IAZ001>003-012>014-020>022-031>034-043>046-090700-
   NORTHWEST IOWA

CITY           SKY/WX    TMP DP  RH WIND       PRES   REMARKS
CARROLL *      FLURRIES  14   9  79 N23G32    30.03S WCI  -5
CHEROKEE *     LGT SNOW  14  10  85 N18G26    30.08R WCI  -3
DENISON *      MOCLDY    16  10  79 N22G31    30.04S WCI  -2
LE MARS *      CLEAR     18  12  79 N21G31    30.12R WCI   1
ORANGE CITY *  CLEAR     12   9  85 N16G28    30.08R WCI  -4
SHELDON *      MIX PCPN  10   7  85 N26G36    30.06S WCI -11
SIOUX CITY     CLEAR     22  11  62 N26G37    30.10R WCI   5
6HR MIN TEMP:  22; 6HR MAX TEMP:  28;

SPENCER        CLOUDY    10   3  73 N26G38    30.05R BLWGSNOWWCI -11
6HR MIN TEMP:   9; 6HR MAX TEMP:  15; 6HR PCP: TRACE;

STORM LAKE *   LGT SNOW  10   9  92 N30G37    30.03R WCI -12
$$

IAZ055>058-069>071-079>083-090>094-090700-
   SOUTHWEST IOWA

CITY           SKY/WX    TMP DP  RH WIND       PRES   REMARKS
ATLANTIC *     PTCLDY    19  12  73 N17G25    30.05R WCI   4
AUDUBON *      FLURRIES  16  10  79 N18G26    30.02F WCI  -1
CLARINDA *     CLEAR     23  14  68 N17G25    30.07F WCI   9
COUNCIL BLFS * CLEAR     23  12  63 N15G23    30.06F WCI  10
CRESTON *      CLOUDY    16  10  79 N21G28    30.01F WCI  -2
HARLAN  *      CLEAR     19  12  73 N30G37    30.07S WCI   0
LAMONI         CLOUDY    18   8  65 N20G32    30.00S WCI   2
6HR MIN TEMP:  18; 6HR MAX TEMP:  21; 6HR PCP: TRACE;

RED OAK *      PTCLDY    23  14  68 N14G23    30.07S WCI  11
SHENANDOAH *   CLEAR     25  18  74 N16G23    30.08F WCI  12
$$

IAZ047>049-059>061-072>074-084-090700-
   CENTRAL IOWA

CITY           SKY/WX    TMP DP  RH WIND       PRES   REMARKS
AMES           FLURRIES  14   7  73 N21G30    30.00S WCI  -4
6HR MIN TEMP:  14; 6HR MAX TEMP:  18; 6HR PCP: TRACE;

ANKENY *       FLURRIES  14   7  73 NW22G32   30.01S WCI  -4
BOONE *        FLURRIES  12   7  79 N23G32    29.98S WCI  -7
CHARITON *     CLOUDY    16   7  67 NW21G30   29.98S WCI  -2
DES MOINES     FLURRIES  15   6  67 N16G23    30.01S WCI  -1
6HR MIN TEMP:  15; 6HR MAX TEMP:  20; 6HR PCP: TRACE;

GRINNELL*      FLURRIES  14   9  80 NW22G28   29.95S WCI  -4
KNOXVILLE *    CLOUDY    16   7  67 NW21G26   29.96S WCI  -2
MARSHALLTOWN   FLURRIES  13   7  77 NW24G33   29.95S WCI  -7
6HR MIN TEMP:  13; 6HR MAX TEMP:  16; 6HR PCP: TRACE;

NEWTON *       LGT SNOW  14   9  79 NW21G31   29.97S WCI  -4
PELLA *        MOCLDY    16  10  79 NW21G28   29.99R WCI  -2
$$

IAZ004>006-015-016-023>025-035-036-090700-
   NORTH CENTRAL IOWA

CITY           SKY/WX    TMP DP  RH WIND       PRES   REMARKS
ALGONA *       CLOUDY    10   5  79 N21G32    29.99S WCI  -9
CLARION *      CLOUDY    10   3  72 N23G38    29.98S WCI -10
ESTHERVILLE    CLOUDY     9   4  80 N26G36    30.01F WCI -13
6HR MIN TEMP:   8; 6HR MAX TEMP:  14; 6HR PCP: TRACE;

FORT DODGE *   CLOUDY    10   1  67 N15G31    30.01S WCI  -6
MASON CITY     LGT SNOW  11   7  84 NW24      29.95S FOG     WCI  -9
6HR MIN TEMP:  10; 6HR MAX TEMP:  15; 6HR PCP: TRACE;

FOREST CITY *  FLURRIES  10   5  79 NW21G29   29.95S WCI  -9
WEBSTER CITY * LGT SNOW  12   7  79 NW28G33   29.98S WCI  -9
IOWA FALLS *   CLOUDY    13   8  79 NW26G35   29.96S WCI  -7
$$

IAZ007>011-017>019-026>030-037>042-050>054-066-090700-
   NORTHEAST IOWA

CITY           SKY/WX    TMP DP  RH WIND       PRES   REMARKS
CEDAR RAPIDS   LGT SNOW  15  12  88 NW17      29.89R FOG     WCI  -1
6HR MIN TEMP:  15; 6HR MAX TEMP:  16; 6HR PCP: TRACE;

CHARLES CITY * CLOUDY    12   9  85 NW23G29   29.91S FOG     WCI  -7
CLINTON *      FLURRIES  16  11  80 NW13      29.84S WCI   2
DECORAH *      CLOUDY    12   7  79 N21G26    29.86S WCI  -6
DUBUQUE        LGT SNOW  14   9  80 N14       29.82S WCI  -1
6HR MIN TEMP:  14; 6HR MAX TEMP:  15; 6HR PCP: TRACE;

MONTICELLO *   FLURRIES  16   9  73 NW15G21   29.87R WCI   1
OELWEIN *      LGT SNOW  14  10  85 NW16      29.89R WCI  -2
WATERLOO       LGT SNOW  13   8  81 NW23      29.91S WCI  -6
6HR MIN TEMP:  13; 6HR MAX TEMP:  15; 6HR PCP: TRACE;

$$

IAZ064-065-067-068-078-090700-
   EAST CENTRAL IOWA

CITY           SKY/WX    TMP DP  RH WIND       PRES   REMARKS
DAVENPORT      LGT SNOW  16  10  77 NW16      29.85F WCI   1
6HR MIN TEMP:  16; 6HR MAX TEMP:  18; 6HR PCP: TRACE;

IOWA CITY      LGT SNOW  17  11  77 NW14      29.92S WCI   3
6HR MIN TEMP:  16; 6HR MAX TEMP:  17; 6HR PCP: TRACE;

MT. PLEASANT * LGT SNOW  19  14  79 NW15      29.91S WCI   5
MUSCATINE *    LGT SNOW  18  14  86 NW15      29.91S WCI   3
QUAD CITIES    LGT SNOW  17  11  77 NW14      29.85F WCI   3
6HR MIN TEMP:  17; 6HR MAX TEMP:  19; 6HR PCP: TRACE;

$$

IAZ062-063-075>077-085>089-095>099-090700-
   SOUTHEAST IOWA

CITY           SKY/WX    TMP DP  RH WIND       PRES   REMARKS
BURLINGTON     LGT SNOW  17  13  84 NW15G23   29.89S FOG     WCI   2
6HR MIN TEMP:  17; 6HR MAX TEMP:  18; 6HR PCP: TRACE;

FAIRFIELD *    FLURRIES  18  10  73 NW17G26   29.92S WCI   2
FORT MADISON * LGT SNOW  18  14  86 NW14G21   29.91S WCI   4
KEOKUK *       LGT SNOW  19  14  79 NW13G22   29.91F WCI   7
OSKALOOSA *    LGT SNOW  16  12  86 NW23      29.96R WCI  -2
OTTUMWA        FLURRIES  16  11  80 NW24G31   29.95R WCI  -2
6HR MIN TEMP:  16; 6HR MAX TEMP:  18; 6HR PCP: TRACE;

WASHINGTON *   FLURRIES  18  12  79 NW17G23   29.93R WCI   2
$$

ABBREVIATIONS USED IN REMARKS
   TC - TEMPERATURES IN CELSIUS
  WCI - WIND CHILL INDEX
   HX - HEAT INDEX
  VSB - VISIBILITY
$$




USA.gov is the U.S. government's official web portal to all federal, state and local government web resources and services.